Date,TemperatureHighF,TemperatureAvgF,TemperatureLowF,DewpointHighF,DewpointAvgF,DewpointLowF,HumidityHigh,HumidityAvg,HumidityLow,PressureMaxIn,PressureMinIn,WindSpeedMaxMPH,WindSpeedAvgMPH,GustSpeedMaxMPH,PrecipitationSumIn
2013-1-1,34,31,21,28,22,9,84,69,50,30.02,29.87,19,8,19,0.04
2013-1-2,28,22,16,12,10,7,76,61,50,30.20,29.99,19,7,19,0.04
2013-1-3,28,23,16,18,11,8,78,61,48,30.20,30.05,16,6,16,0.04
2013-1-4,32,29,24,22,17,13,78,60,50,30.11,29.96,31,12,31,0.04
2013-1-5,36,30,26,21,16,12,78,58,46,30.29,30.02,23,8,23,0.04
2013-1-6,39,32,27,31,25,20,100,74,48,30.23,29.99,15,4,15,0.04
2013-1-7,40,35,27,27,23,17,90,63,40,30.37,30.05,23,6,23,0.04
2013-1-8,43,32,24,28,25,22,100,76,46,30.37,30.32,11,3,11,0.04
2013-1-9,38,32,22,38,31,22,100,96,70,30.37,30.14,16,3,16,0.04
2013-1-10,44,38,34,28,22,19,68,53,38,30.52,30.23,14,8,14,0.00
2013-1-11,39,35,31,39,31,23,100,85,66,30.52,30.11,7,1,7,0.31
2013-1-12,44,40,36,44,40,36,100,100,100,30.17,30.08,7,0,7,0.00
2013-1-13,45,42,40,45,42,40,100,100,100,30.14,29.99,7,1,7,0.04
2013-1-14,51,45,33,50,39,23,100,83,42,30.29,29.90,20,5,20,0.04
2013-1-15,36,32,29,34,28,22,100,86,62,30.35,30.20,14,4,14,0.12
2013-1-16,31,30,28,31,30,28,100,100,100,30.23,29.87,11,1,11,0.12
2013-1-17,36,33,30,33,28,24,100,84,66,30.08,29.93,21,6,21,0.24
2013-1-18,31,24,20,25,11,0,84,58,34,30.43,29.99,25,7,25,0.12
2013-1-19,44,33,20,26,20,8,88,59,42,30.37,29.90,16,4,16,0.12
2013-1-20,48,36,22,26,17,3,72,49,26,30.05,29.72,32,10,32,0.00
2013-1-21,26,22,18,22,9,3,100,58,46,30.08,29.87,27,6,27,0.00
2013-1-22,20,12,6,4,-6,-15,58,44,34,30.20,29.84,32,15,32,0.00
2013-1-23,13,8,4,0,-9,-17,56,45,36,30.23,30.14,22,8,22,0.00
2013-1-24,20,12,4,3,-4,-8,64,49,32,30.40,30.11,34,9,34,0.00
2013-1-25,17,11,7,14,1,-7,100,67,48,30.43,30.05,22,4,22,0.00
2013-1-26,23,16,9,12,6,0,100,71,42,30.37,30.05,25,8,25,0.00
2013-1-27,31,21,11,13,8,2,82,57,38,30.52,30.37,14,5,14,0.00
2013-1-28,31,26,20,31,24,8,100,91,56,30.46,30.02,10,1,10,0.04
2013-1-29,46,39,31,46,39,31,100,100,90,30.14,30.02,8,1,8,0.24
2013-1-30,61,48,38,61,48,38,100,100,100,30.08,29.34,27,2,27,0.75
2013-1-31,53,37,22,53,24,3,100,63,30,29.81,29.10,43,18,43,1.65
2013-2-1,26,22,16,14,7,-1,72,53,34,30.23,29.78,35,13,35,0.00
2013-2-2,20,16,10,18,8,1,100,73,48,30.26,29.99,19,5,19,0.00
2013-2-3,25,19,13,22,17,13,100,94,74,30.02,29.78,17,2,17,0.00
2013-2-4,25,20,15,20,9,3,96,61,40,29.99,29.81,25,9,25,0.00
2013-2-5,27,24,21,27,23,15,100,97,78,29.96,29.87,8,1,8,0.00
2013-2-6,34,28,23,26,18,4,100,70,38,30.32,29.90,25,7,25,0.00
2013-2-7,30,23,15,17,10,5,76,56,44,30.46,30.29,13,3,13,0.00
2013-2-8,30,29,25,30,27,14,100,95,62,30.29,29.72,25,7,25,0.00
2013-2-9,30,22,15,30,11,0,100,63,34,30.35,29.75,39,15,39,0.00
2013-2-10,35,23,7,13,6,2,86,53,32,30.46,30.29,16,3,16,0.00
2013-2-11,40,33,28,40,31,12,100,93,52,30.29,29.70,19,2,19,0.31
2013-2-12,38,35,28,34,21,18,82,57,48,29.99,29.75,35,12,35,0.00
2013-2-13,38,30,23,32,23,20,100,74,50,29.96,29.72,10,2,10,0.00
2013-2-14,41,33,27,32,26,20,100,76,44,29.99,29.72,16,4,16,0.04
2013-2-15,49,37,25,35,26,15,100,70,32,29.99,29.93,22,5,22,0.00
2013-2-16,32,29,24,31,20,3,100,72,40,29.99,29.78,16,1,16,0.08
2013-2-17,27,21,13,3,-2,-9,42,37,30,30.05,29.75,38,18,38,0.00
2013-2-18,32,21,11,6,0,-8,52,39,32,30.29,30.02,32,10,32,0.00
2013-2-19,37,29,20,34,21,4,100,74,40,30.17,29.72,32,3,32,0.24
2013-2-20,32,23,19,22,9,5,72,55,46,30.02,29.75,32,17,32,0.00
2013-2-21,31,23,19,14,10,6,74,58,44,30.29,29.99,30,14,30,0.00
2013-2-22,32,26,17,30,18,11,100,73,52,30.37,30.23,16,5,16,0.00
2013-2-23,38,34,30,38,34,29,100,100,100,30.26,29.84,12,3,12,0.08
2013-2-24,40,33,28,38,28,16,100,81,56,30.02,29.78,25,8,25,0.00
2013-2-25,42,32,27,26,22,17,82,65,44,30.23,29.99,20,5,20,0.00
2013-2-26,40,32,24,33,28,20,100,86,58,30.26,29.84,19,5,19,0.12
2013-2-27,44,38,32,44,36,31,100,96,80,29.87,29.55,23,8,23,0.55
2013-2-28,41,36,30,38,32,22,100,87,50,29.67,29.58,22,6,22,0.00
2013-3-1,38,34,29,33,26,20,100,73,50,29.81,29.64,26,12,26,0.00
2013-3-2,34,29,25,21,18,16,74,64,50,29.81,29.75,25,11,25,0.00
2013-3-3,32,26,22,17,14,11,82,60,48,29.81,29.72,27,13,27,0.00
2013-3-4,38,29,24,18,14,10,68,53,34,29.96,29.78,35,15,35,0.00
2013-3-5,44,34,28,22,19,15,72,54,32,30.02,29.93,31,7,31,0.00
2013-3-6,37,35,32,37,28,21,100,76,58,29.99,29.84,28,9,28,0.00
2013-3-7,41,35,32,30,21,17,92,58,38,30.11,29.96,22,10,22,0.00
2013-3-8,40,32,26,29,24,18,100,74,50,30.23,30.05,30,12,30,0.00
2013-3-9,59,43,28,20,16,10,70,38,20,30.32,30.20,21,6,21,0.00
2013-3-10,55,42,29,36,22,10,98,50,22,30.35,30.23,11,4,11,0.00
2013-3-11,52,42,32,49,38,30,100,87,46,30.29,30.02,14,4,14,0.00
2013-3-12,51,49,38,51,49,31,100,99,76,30.02,29.75,16,6,16,1.69
2013-3-13,45,37,30,32,24,14,84,60,32,29.93,29.81,25,10,25,0.00
2013-3-14,38,30,25,17,9,2,70,41,30,29.99,29.87,33,17,33,0.00
2013-3-15,44,34,21,28,17,2,68,50,34,29.99,29.72,30,10,30,0.00
2013-3-16,39,30,28,30,25,17,100,82,56,29.93,29.75,16,6,16,0.00
2013-3-17,33,28,24,29,17,10,100,64,42,30.29,29.93,19,7,19,0.00
2013-3-18,32,26,21,29,16,6,100,70,38,30.35,29.96,16,5,16,0.00
2013-3-19,45,34,28,41,27,9,100,79,34,29.96,29.70,35,7,35,0.31
2013-3-20,41,32,26,19,13,9,70,47,28,29.90,29.78,30,12,30,0.00
2013-3-21,34,28,22,26,12,5,94,53,32,29.84,29.67,23,8,23,0.00
2013-3-22,37,29,22,19,14,8,76,55,36,29.90,29.75,25,12,25,0.00
2013-3-23,43,34,27,18,14,7,64,45,28,29.96,29.87,28,13,28,0.00
2013-3-24,43,36,27,19,13,10,60,40,28,29.96,29.70,24,6,24,0.00
2013-3-25,35,33,30,34,28,19,100,85,50,29.70,29.49,16,5,16,0.12
2013-3-26,50,38,32,33,26,12,100,68,24,29.90,29.64,22,9,22,0.00
2013-3-27,48,38,31,39,25,13,100,66,26,30.02,29.90,23,12,23,0.00
2013-3-28,46,38,30,33,24,18,98,60,38,30.14,29.99,13,10,13,0.00
2013-3-29,49,42,32,28,22,16,68,46,30,30.17,30.08,19,11,19,0.00
2013-3-30,55,42,32,30,20,11,88,48,22,30.11,30.08,16,8,16,0.00
2013-3-31,53,42,31,45,26,8,100,58,28,30.11,29.72,10,5,10,0.24
2013-4-1,55,42,31,50,29,5,100,66,26,29.93,29.67,31,10,31,0.00
2013-4-2,40,32,25,11,7,2,50,34,30,30.11,29.93,33,13,33,0.00
2013-4-3,43,33,26,13,8,1,50,34,28,30.29,30.08,26,10,26,0.00
2013-4-4,51,36,24,18,11,2,56,36,24,30.37,30.05,15,4,15,0.00
2013-4-5,58,44,32,25,18,11,68,37,22,30.08,29.75,22,9,22,0.00
2013-4-6,51,39,28,18,12,6,52,35,24,30.29,30.02,16,7,16,0.00
2013-4-7,60,48,35,38,26,9,70,44,28,30.26,29.96,16,6,16,0.00
2013-4-8,74,60,46,46,36,25,86,46,18,30.08,29.93,16,4,16,0.00
2013-4-9,78,68,57,49,37,27,76,38,18,29.99,29.87,33,8,33,0.00
2013-4-10,67,63,58,59,46,39,100,54,36,29.93,29.75,19,4,19,0.59
2013-4-11,59,53,45,59,51,36,100,91,56,29.96,29.75,15,5,15,0.00
2013-4-12,45,40,38,45,40,38,100,99,86,29.96,29.72,16,6,16,0.94
2013-4-13,54,45,36,40,30,20,100,61,28,29.96,29.78,21,6,21,0.00
2013-4-14,56,48,40,32,22,14,66,38,22,30.20,29.96,29,8,29,0.00
2013-4-15,60,48,40,35,27,17,62,44,30,30.35,30.17,13,4,13,0.00
2013-4-16,64,50,44,59,44,34,100,79,58,30.32,30.11,14,4,14,0.00
2013-4-17,68,58,49,59,34,17,100,51,16,30.26,30.11,16,4,16,0.04
2013-4-18,54,50,45,53,44,30,100,80,42,30.29,30.05,15,4,15,0.16
2013-4-19,71,61,48,66,58,48,100,92,60,30.08,29.58,34,7,34,1.02
2013-4-20,53,46,37,48,27,11,100,54,24,30.32,29.72,30,13,30,0.08
2013-4-21,51,41,30,22,15,11,60,37,24,30.58,30.32,21,6,21,0.00
2013-4-22,52,41,30,30,25,21,96,55,34,30.61,30.46,19,4,19,0.00
2013-4-23,44,42,40,43,40,39,100,94,82,30.17,30.11,7,0,7,0.00
2013-4-24,68,54,40,59,46,40,100,77,38,30.14,29.78,22,4,22,0.00
2013-4-25,60,49,38,55,25,16,100,42,20,30.26,29.84,33,12,33,0.00
2013-4-26,60,52,40,33,23,17,66,34,20,30.40,30.26,18,6,18,0.00
2013-4-27,59,44,39,23,22,18,52,44,20,30.43,30.23,11,2,11,0.00
2013-4-28,66,44,39,26,23,20,52,47,20,30.29,30.14,15,3,15,0.00
2013-4-29,56,51,48,50,42,22,100,81,26,30.20,30.11,15,4,15,0.28
2013-4-30,64,54,46,54,37,14,100,63,20,30.32,30.17,16,4,16,0.04
2013-5-1,67,53,38,38,23,12,70,33,18,30.43,30.29,16,3,16,0.00
2013-5-2,70,56,39,46,35,25,100,53,20,30.43,30.29,11,2,11,0.00
2013-5-3,64,55,45,39,29,16,74,39,18,30.40,30.29,18,4,18,0.00
2013-5-4,68,54,38,45,35,24,100,58,22,30.35,30.17,14,3,14,0.00
2013-5-5,64,50,36,44,35,25,100,64,22,30.26,30.17,17,3,17,0.00
2013-5-6,67,53,39,54,44,37,100,76,36,30.26,30.11,14,3,14,0.00
2013-5-7,70,59,47,60,48,39,100,73,32,30.14,30.05,15,4,15,0.00
2013-5-8,66,59,53,64,58,48,100,97,62,30.05,29.90,14,3,14,1.34
2013-5-9,67,58,53,60,53,45,100,86,50,29.96,29.90,12,2,12,0.04
2013-5-10,75,64,53,64,51,35,100,70,24,30.02,29.87,20,3,20,0.24
2013-5-11,68,62,57,68,61,56,100,98,78,29.87,29.70,13,2,13,0.31
2013-5-12,59,53,43,57,32,15,100,51,22,29.96,29.70,29,11,29,0.00
2013-5-13,51,43,36,32,23,13,80,47,24,30.11,29.96,22,8,22,0.00
2013-5-14,58,46,32,33,21,13,100,44,22,30.14,30.02,19,5,19,0.00
2013-5-15,70,55,43,59,39,20,94,56,36,30.05,29.70,16,3,16,0.00
2013-5-16,79,67,55,62,44,20,100,56,16,29.84,29.72,22,5,22,0.00
2013-5-17,70,60,49,40,31,24,70,35,20,30.17,29.84,16,5,16,0.00
2013-5-18,62,57,52,59,46,31,100,69,40,30.26,30.17,12,3,12,0.00
2013-5-19,58,55,53,58,55,53,100,100,100,30.26,30.17,12,3,12,0.16
2013-5-20,77,64,54,70,60,54,100,88,50,30.17,29.96,11,2,11,0.00
2013-5-21,85,71,59,74,65,53,100,84,40,29.96,29.78,13,2,13,0.00
2013-5-22,85,73,61,75,64,46,100,78,26,29.90,29.78,16,2,16,0.00
2013-5-23,76,66,60,73,66,60,100,97,66,29.87,29.72,21,3,21,0.59
2013-5-24,60,50,41,60,48,34,100,94,66,30.02,29.70,27,7,27,0.12
2013-5-25,56,49,42,41,30,19,94,53,26,30.05,29.96,35,14,35,0.00
2013-5-26,64,53,42,36,27,16,82,40,18,30.20,30.05,30,10,30,0.00
2013-5-27,70,57,42,37,28,18,66,36,16,30.26,30.11,16,4,16,0.00
2013-5-28,56,54,48,55,50,32,100,88,40,30.23,30.11,8,1,8,0.24
2013-5-29,82,67,54,72,58,46,100,78,32,30.14,29.99,16,3,16,0.00
2013-5-30,87,76,64,69,57,37,100,61,18,30.14,30.05,14,4,14,0.00
2013-5-31,89,77,66,72,55,29,100,57,12,30.11,29.96,11,2,11,0.00
2013-6-1,87,73,65,69,60,47,100,70,26,29.99,29.87,11,1,11,0.00
2013-6-2,83,75,68,71,62,46,100,68,28,29.90,29.75,16,3,16,0.00
2013-6-3,76,68,60,70,59,37,100,76,40,29.90,29.78,13,3,13,0.31
2013-6-4,71,61,50,40,32,23,68,37,20,30.11,29.90,18,6,18,0.00
2013-6-5,73,62,48,41,30,20,54,31,18,30.20,30.05,12,3,12,0.00
2013-6-6,65,58,48,60,52,38,100,81,38,30.11,29.96,14,4,14,0.43
2013-6-7,60,58,56,60,58,56,100,100,100,29.96,29.67,19,5,19,1.89
2013-6-8,73,64,57,65,58,50,100,85,48,30.05,29.67,14,6,14,0.04
2013-6-9,78,67,56,64,52,41,100,64,28,30.17,30.05,13,3,13,0.00
2013-6-10,65,61,60,63,61,59,100,99,82,30.11,29.75,10,2,10,1.50
2013-6-11,73,66,60,64,61,54,100,85,58,29.78,29.67,22,8,22,0.00
2013-6-12,75,67,62,61,53,39,98,68,28,29.84,29.72,20,9,20,0.00
2013-6-13,63,59,54,63,58,54,100,98,76,29.81,29.46,21,4,21,0.98
2013-6-14,72,60,52,54,49,38,100,70,30,29.93,29.55,22,6,22,0.08
2013-6-15,77,66,57,59,45,28,100,53,18,30.02,29.90,22,6,22,0.00
2013-6-16,77,67,56,68,53,39,100,65,28,29.99,29.78,19,4,20,0.00
2013-6-17,84,72,62,69,52,28,100,60,14,29.90,29.81,22,5,22,0.00
2013-6-18,78,67,59,73,62,45,100,86,32,29.90,29.78,13,2,13,0.79
2013-6-19,75,64,55,58,42,27,100,54,18,30.14,29.87,14,3,14,0.00
2013-6-20,76,65,51,55,45,28,88,52,24,30.23,30.14,11,2,11,0.00
2013-6-21,80,68,55,57,46,37,100,49,22,30.26,30.17,14,2,14,0.00
2013-6-22,82,70,55,65,52,39,98,57,28,30.23,30.08,14,2,14,0.00
2013-6-23,84,74,63,73,63,51,100,75,34,30.17,30.02,12,2,12,0.00
2013-6-24,89,75,66,72,63,40,100,75,22,30.05,29.96,35,4,35,0.31
2013-6-25,86,74,65,78,64,46,100,78,28,29.99,29.81,19,4,19,0.31
2013-6-26,83,72,64,70,63,50,100,76,32,29.87,29.78,16,4,16,0.00
2013-6-27,83,72,65,74,65,53,100,81,38,29.81,29.52,18,3,18,0.59
2013-6-28,82,72,63,72,64,47,100,80,34,29.55,29.46,19,4,19,0.12
2013-6-29,82,71,62,68,57,42,100,68,26,29.70,29.49,16,3,16,0.00
2013-6-30,79,72,65,76,68,57,100,88,54,29.87,29.70,16,2,16,0.04
2013-7-1,74,70,67,74,70,67,100,100,100,29.99,29.84,18,3,18,2.72
2013-7-2,80,74,70,76,71,64,100,93,58,30.14,29.99,13,3,13,0.04
2013-7-3,82,73,68,75,70,61,100,91,52,30.20,30.14,13,2,13,0.00
2013-7-4,86,76,68,76,68,56,100,81,40,30.23,30.14,12,2,12,0.00
2013-7-5,88,78,69,76,66,49,100,74,28,30.20,30.08,15,3,15,0.00
2013-7-6,88,79,71,77,66,50,100,69,28,30.14,30.02,14,4,14,0.00
2013-7-7,89,78,68,76,66,49,100,74,26,30.08,29.93,30,5,30,0.00
2013-7-8,84,73,65,71,61,46,100,71,28,30.05,29.96,16,6,16,0.00
2013-7-9,76,72,65,73,68,65,100,86,72,30.05,29.99,16,2,16,0.00
2013-7-10,83,74,67,76,69,58,100,86,44,30.02,29.81,15,3,15,0.12
2013-7-11,82,74,68,75,62,43,100,72,26,29.93,29.78,14,3,14,0.00
2013-7-12,74,69,66,71,61,50,100,76,52,30.05,29.93,19,5,19,0.16
2013-7-13,79,69,63,76,68,63,100,97,72,30.26,30.05,16,4,16,0.16
2013-7-14,87,78,71,78,65,47,100,72,26,30.32,30.23,15,3,15,0.00
2013-7-15,90,80,70,75,63,46,100,65,24,30.26,30.14,15,5,15,0.00
2013-7-16,89,79,70,70,58,44,90,53,22,30.23,30.14,13,4,13,0.00
2013-7-17,88,80,71,72,56,46,100,48,24,30.20,30.05,11,3,11,0.00
2013-7-18,94,83,72,76,59,39,100,53,16,30.08,29.96,13,4,13,0.00
2013-7-19,92,82,73,70,61,47,80,51,22,29.96,29.78,18,4,18,0.00
2013-7-20,89,77,70,74,66,46,100,73,24,29.84,29.75,18,5,18,0.00
2013-7-21,82,75,68,73,59,44,100,63,26,29.96,29.84,10,2,10,0.00
2013-7-22,82,72,67,72,68,60,100,89,48,29.96,29.78,11,3,11,0.75
2013-7-23,82,74,67,76,67,53,100,82,38,29.78,29.61,19,4,19,0.55
2013-7-24,75,68,58,71,56,39,100,69,30,29.96,29.64,13,6,13,0.00
2013-7-25,70,61,55,61,49,42,100,65,46,30.05,29.93,19,5,19,0.00
2013-7-26,79,68,57,61,49,29,100,60,16,30.05,29.99,13,4,13,0.00
2013-7-27,79,69,56,64,56,46,100,67,32,30.02,29.93,14,3,14,0.00
2013-7-28,75,68,64,74,67,59,100,96,74,29.96,29.87,13,3,13,0.79
2013-7-29,76,68,60,67,52,29,100,65,18,30.11,29.93,19,5,19,0.04
2013-7-30,75,66,56,59,49,39,100,57,28,30.17,30.08,15,5,15,0.00
2013-7-31,71,69,66,66,52,50,100,56,52,30.17,29.99,5,3,5,0.00
2013-8-1,67,65,63,67,65,63,100,100,100,30.02,29.81,5,0,5,0.83
2013-8-2,68,66,64,66,64,48,100,96,52,29.90,29.81,10,0,10,0.00
2013-8-3,73,66,62,69,60,47,100,83,54,29.90,29.84,16,4,16,0.16
2013-8-4,74,66,58,64,48,33,100,59,24,29.99,29.87,21,6,21,0.00
2013-8-5,73,63,53,59,42,27,100,52,20,30.08,29.96,14,4,14,0.00
2013-8-6,75,64,52,62,51,38,100,69,30,30.08,30.02,13,2,13,0.00
2013-8-7,70,66,62,70,66,62,100,99,84,30.11,30.02,11,4,11,0.79
2013-8-8,79,70,66,77,69,64,100,96,68,30.02,29.96,22,1,22,0.51
2013-8-9,82,73,68,78,71,63,100,96,58,29.99,29.81,19,4,19,1.38
2013-8-10,80,70,62,69,56,42,100,67,28,30.05,29.87,16,5,16,0.00
2013-8-11,78,67,56,68,52,38,100,63,28,30.11,29.99,10,2,10,0.00
2013-8-12,80,70,64,67,57,41,100,70,28,30.02,29.90,10,2,10,0.12
2013-8-13,78,68,63,71,64,56,100,88,50,29.90,29.70,13,2,13,1.06
2013-8-14,69,60,52,62,43,36,100,55,32,29.90,29.78,20,8,20,0.00
2013-8-15,73,64,49,55,41,27,100,50,20,30.14,30.02,13,3,13,0.00
2013-8-16,77,63,50,60,44,27,100,61,18,30.17,30.11,11,1,11,0.00
2013-8-17,76,65,53,62,49,29,100,65,18,30.26,30.17,10,1,10,0.00
2013-8-18,69,64,59,66,60,49,100,89,52,30.23,30.11,7,1,7,0.00
2013-8-19,73,66,58,66,59,47,100,82,42,30.14,30.02,10,3,10,0.00
2013-8-20,82,71,66,66,61,47,100,75,30,30.11,30.02,10,3,10,0.00
2013-8-21,82,71,58,70,56,43,100,67,26,30.17,30.05,8,1,8,0.00
2013-8-22,80,71,66,75,69,60,100,93,56,30.05,29.87,22,2,22,0.31
2013-8-23,74,69,62,68,51,38,100,61,28,30.11,29.90,12,4,12,0.00
2013-8-24,74,66,56,56,42,27,94,46,18,30.32,30.08,16,3,16,0.00
2013-8-25,76,64,52,62,46,28,100,62,18,30.37,30.20,13,2,13,0.00
2013-8-26,78,67,60,65,55,49,82,66,42,30.23,29.90,14,4,14,0.00
2013-8-27,84,75,66,67,58,46,100,60,26,29.90,29.84,16,3,16,0.00
2013-8-28,78,75,66,69,60,57,100,62,48,29.90,29.84,8,1,8,0.55
2013-8-29,79,70,65,71,65,55,100,88,48,30.02,29.87,11,3,11,0.04
2013-8-30,80,71,64,73,67,60,100,90,52,30.02,29.84,11,2,11,0.00
2013-8-31,82,73,66,76,69,60,100,88,50,29.87,29.78,10,2,10,0.00
2013-9-1,82,74,68,76,70,61,100,89,50,29.84,29.75,10,1,10,0.51
2013-9-2,76,70,66,75,69,64,100,98,66,29.78,29.70,18,1,19,1.65
2013-9-3,77,68,60,68,56,34,100,72,22,29.90,29.72,17,5,17,0.00
2013-9-4,77,66,55,59,49,29,100,63,18,30.02,29.87,18,6,18,0.00
2013-9-5,72,64,56,59,43,25,100,52,20,30.14,29.93,19,6,19,0.00
2013-9-6,67,56,44,48,34,20,98,49,18,30.26,30.11,12,3,12,0.00
2013-9-7,75,60,48,52,41,27,100,58,18,30.11,29.90,13,2,13,0.00
2013-9-8,76,66,54,60,45,26,100,53,20,30.08,29.84,16,6,17,0.00
2013-9-9,68,56,47,63,42,31,94,60,42,30.23,30.05,10,3,10,0.00
2013-9-10,85,72,64,76,66,57,100,85,44,30.14,30.02,13,2,13,0.00
2013-9-11,89,76,70,73,68,52,100,79,28,30.11,29.96,19,3,19,0.00
2013-9-12,78,71,65,77,70,65,100,96,86,29.99,29.69,14,2,14,0.91
2013-9-13,70,62,52,65,52,36,100,73,34,29.87,29.64,28,7,28,0.08
2013-9-14,58,52,44,48,39,32,92,63,38,30.14,29.87,20,6,20,0.08
2013-9-15,68,55,40,53,40,25,100,67,22,30.23,30.08,12,2,12,0.08
2013-9-16,67,58,49,58,47,32,100,72,28,30.26,30.05,18,4,18,0.08
2013-9-17,62,50,39,43,33,20,100,57,24,30.43,30.26,16,3,16,0.08
2013-9-18,63,47,37,48,38,24,100,78,24,30.35,30.17,11,1,11,0.08
2013-9-19,72,58,42,50,39,25,100,59,20,30.20,30.05,10,2,10,0.00
2013-9-20,75,58,48,56,48,35,100,76,24,30.08,29.99,11,2,11,0.00
2013-9-21,73,66,59,63,51,38,100,67,30,29.78,29.67,15,4,15,0.63
2013-9-22,64,58,50,59,41,24,100,61,24,29.93,29.67,22,8,22,0.04
2013-9-23,60,52,46,37,32,26,68,47,30,30.05,29.93,21,7,21,0.04
2013-9-24,70,54,38,43,34,25,100,54,20,30.08,29.90,14,4,14,0.00
2013-9-25,71,56,44,49,37,27,94,53,20,29.99,29.87,13,2,13,0.04
2013-9-26,62,51,47,57,49,42,100,95,56,30.08,29.93,13,2,13,0.00
2013-9-27,67,57,47,55,44,32,100,69,28,30.23,30.08,8,3,9,0.00
2013-9-28,69,59,50,55,44,26,100,67,22,30.32,30.20,13,3,13,0.00
2013-9-29,67,56,46,54,44,34,100,71,32,30.20,30.05,8,1,8,0.00
2013-9-30,70,58,45,58,44,27,100,68,20,30.08,29.93,10,2,10,0.00
2013-10-1,76,62,51,55,47,34,100,65,24,30.02,29.90,15,4,15,0.00
2013-10-2,79,67,57,57,48,40,92,56,26,29.99,29.90,21,6,21,0.00
2013-10-3,76,65,55,64,51,34,100,65,24,30.11,29.99,12,1,12,0.00
2013-10-4,79,68,57,67,56,43,100,73,30,30.05,29.96,13,2,13,0.00
2013-10-5,80,70,60,69,58,43,100,73,28,30.05,29.96,10,2,10,0.00
2013-10-6,67,64,62,67,64,62,100,100,100,30.05,29.93,12,4,12,0.00
2013-10-7,71,62,50,70,60,38,100,95,62,29.99,29.72,24,6,24,1.42
2013-10-8,65,54,46,42,34,24,80,51,22,30.32,29.99,16,4,16,0.00
2013-10-9,57,51,44,41,35,28,80,56,32,30.38,30.29,18,5,18,0.00
2013-10-10,55,51,47,54,45,37,100,80,60,30.29,30.08,18,6,18,0.16
2013-10-11,62,58,54,60,50,42,100,75,62,30.11,30.02,21,7,21,0.04
2013-10-12,70,61,55,52,33,20,76,38,16,30.26,30.08,17,6,17,0.00
2013-10-13,63,57,48,53,44,35,100,64,36,30.35,30.23,14,6,14,0.00
2013-10-14,66,53,44,52,40,25,100,68,22,30.35,30.23,8,1,8,0.00
2013-10-15,69,56,44,52,38,16,100,60,20,30.23,30.08,11,2,11,0.00
2013-10-16,60,54,46,58,50,26,100,86,40,30.08,29.90,8,1,8,0.00
2013-10-17,70,62,56,63,56,40,100,84,36,29.90,29.67,16,3,16,0.04
2013-10-18,62,54,48,62,35,22,100,51,26,29.96,29.67,30,10,30,0.00
2013-10-19,60,52,37,52,36,23,100,61,26,29.96,29.75,13,3,13,0.16
2013-10-20,57,48,40,50,30,16,100,55,22,30.05,29.78,22,7,22,0.00
2013-10-21,64,50,36,41,30,18,100,51,18,30.14,29.96,13,2,13,0.00
2013-10-22,58,48,40,50,34,13,100,65,22,29.96,29.75,16,4,16,0.00
2013-10-23,53,41,33,33,24,14,84,52,24,29.84,29.64,17,4,17,0.00
2013-10-24,48,39,32,34,23,12,100,59,26,30.02,29.78,28,9,28,0.00
2013-10-25,49,39,31,32,25,15,98,60,26,30.23,30.02,24,6,24,0.00
2013-10-26,52,38,30,31,24,12,96,64,24,30.23,29.87,21,5,21,0.00
2013-10-27,52,44,38,27,20,12,60,39,24,30.11,29.84,22,8,22,0.00
2013-10-28,58,45,32,27,22,14,76,44,22,30.29,30.11,16,4,16,0.00
2013-10-29,56,44,36,29,21,15,66,41,22,30.37,30.29,14,3,14,0.00
2013-10-30,55,46,37,51,37,20,100,73,46,30.32,30.14,5,0,5,0.00
2013-10-31,60,54,46,60,53,46,100,99,80,30.20,29.78,11,1,11,0.04
2013-11-1,67,60,52,64,48,24,100,70,22,29.78,29.55,32,5,32,0.35
2013-11-2,61,52,45,42,32,21,76,47,26,29.81,29.64,17,4,17,0.00
2013-11-3,46,42,29,41,32,4,86,69,32,30.43,29.81,16,7,16,0.00
2013-11-4,41,33,24,12,8,5,52,36,28,30.61,30.43,15,3,15,0.00
2013-11-5,51,41,28,40,24,6,88,51,32,30.61,30.43,11,2,11,0.00
2013-11-6,58,50,42,51,42,34,100,77,40,30.46,30.05,8,2,8,0.00
2013-11-7,55,48,37,55,44,24,100,87,50,30.05,29.81,16,6,16,0.12
2013-11-8,46,38,32,30,20,13,74,49,32,30.23,29.96,30,10,30,0.00
2013-11-9,47,38,29,26,19,12,76,50,26,30.26,29.99,13,4,13,0.00
2013-11-10,54,43,36,26,19,12,66,39,26,30.08,29.84,38,11,38,0.00
2013-11-11,45,41,38,24,15,12,44,35,32,30.14,29.96,30,9,30,0.00
2013-11-12,46,31,22,29,11,1,74,44,32,30.32,29.93,26,10,26,0.00
2013-11-13,35,27,22,12,5,0,52,38,32,30.38,30.29,22,11,22,0.00
2013-11-14,40,39,37,11,10,8,30,30,30,30.20,30.17,10,5,10,0.00
2013-11-15,53,43,34,17,12,7,32,28,22,30.23,30.14,11,2,11,0.00
2013-11-16,56,46,37,47,34,10,100,69,28,30.32,30.20,11,2,11,0.04
2013-11-17,58,52,46,58,51,45,100,96,72,30.26,29.75,11,3,11,0.00
2013-11-18,59,53,44,58,29,12,100,48,20,29.84,29.64,40,12,40,0.24
2013-11-19,44,37,28,13,10,6,50,32,28,30.35,29.84,32,12,32,0.00
2013-11-20,42,32,28,13,8,-1,52,36,26,30.58,30.35,19,5,19,0.00
2013-11-21,46,36,24,31,14,-2,64,41,28,30.58,30.37,10,3,10,0.00
2013-11-22,51,46,43,50,43,28,100,90,64,30.37,29.96,19,4,19,0.00
2013-11-23,50,35,22,43,14,-4,100,43,30,30.11,29.93,34,14,34,0.00
2013-11-24,24,20,16,-3,-5,-7,34,32,30,30.37,30.05,38,17,38,0.00
2013-11-25,32,23,14,10,3,-7,78,42,32,30.46,30.29,19,5,19,0.00
2013-11-26,35,29,26,35,18,2,100,71,34,30.29,29.72,13,2,13,0.47
2013-11-27,47,36,26,47,32,9,100,87,44,29.81,29.43,36,11,36,1.22
2013-11-28,31,26,23,19,8,0,74,46,34,30.43,29.81,27,12,27,0.24
2013-11-29,33,26,18,16,9,2,72,49,32,30.70,30.43,15,4,15,0.24
2013-11-30,31,24,16,25,9,1,90,55,34,30.70,30.35,10,3,10,0.24
2013-12-1,41,32,23,29,22,16,100,70,40,30.37,29.99,10,2,10,0.00
2013-12-2,43,35,31,28,24,18,84,64,38,30.02,29.87,7,0,7,0.00
2013-12-3,50,39,33,34,26,18,100,63,30,29.96,29.87,11,2,11,0.00
2013-12-4,47,38,32,44,33,28,100,82,48,30.11,30.02,8,1,8,0.00
2013-12-5,51,47,42,51,47,39,100,99,82,30.11,29.93,6,0,6,0.00
2013-12-6,55,42,33,55,41,27,100,97,74,30.17,29.90,15,5,15,0.43
2013-12-7,33,30,24,33,23,12,100,76,50,30.52,30.11,16,8,16,0.00
2013-12-8,25,22,19,24,10,7,100,59,50,30.55,30.35,11,4,11,0.28
2013-12-9,32,28,24,32,28,24,100,100,100,30.35,29.99,12,2,12,0.04
2013-12-10,32,29,20,31,26,2,100,90,42,30.14,29.90,18,0,18,0.00
2013-12-11,29,22,16,9,5,1,60,49,34,30.32,30.11,26,6,26,0.00
2013-12-12,23,19,12,16,1,-9,80,47,32,30.35,30.14,22,10,22,0.00
2013-12-13,30,22,12,10,2,-9,54,40,34,30.29,30.08,21,6,21,0.00
2013-12-14,26,20,15,21,16,10,100,87,50,30.40,29.78,19,7,19,0.00
2013-12-15,34,28,20,32,20,8,100,76,44,29.84,29.58,28,11,28,0.04
2013-12-16,27,20,14,14,-1,-7,62,39,32,30.20,29.84,29,10,29,0.00
2013-12-17,21,16,10,21,13,-5,100,90,44,30.20,29.93,5,1,5,0.00
2013-12-18,31,24,12,21,13,8,100,67,38,30.17,29.93,19,8,19,0.00
2013-12-19,38,26,18,22,15,10,96,65,34,30.17,30.02,8,1,8,0.04
2013-12-20,45,38,29,22,19,14,74,48,32,30.11,29.96,7,1,7,0.08
2013-12-21,51,43,37,48,31,20,100,64,42,29.99,29.90,7,1,7,0.04
2013-12-22,61,54,44,60,54,44,100,100,84,29.96,29.78,13,3,13,0.04
2013-12-23,54,48,33,54,46,15,100,91,48,30.17,29.93,23,6,23,0.71
2013-12-24,34,28,18,25,14,5,100,58,34,30.35,30.11,31,10,31,0.04
2013-12-25,22,18,11,7,0,-6,56,46,36,30.49,30.35,21,5,21,0.04
2013-12-26,30,23,15,25,17,6,100,77,54,30.37,30.14,13,3,13,0.00
2013-12-27,35,28,21,16,12,8,72,50,36,30.35,30.26,15,5,15,0.04
2013-12-28,48,37,26,16,13,10,58,39,26,30.29,30.08,16,5,16,0.04
2013-12-29,41,37,34,39,27,10,100,74,30,30.11,29.52,27,6,27,0.67
2013-12-30,40,31,20,37,18,-1,100,62,36,30.17,29.75,22,8,22,0.04
2013-12-31,28,20,12,25,6,-4,100,59,34,30.29,30.05,35,6,35,0.04
2014-1-1,28,23,16,16,8,-4,70,53,38,30.37,30.20,18,3,18,0.04
2014-1-2,24,19,12,18,15,12,100,88,70,30.23,29.70,22,8,22,0.04